Theta_e
303 302 306 308 308 293 300 301 296 299 303 300 296 298 300 298 295 291 301 298 299 303 303 304 307 307 307 308 311 322 330 331 332 332 333 333 333 334 336 339 340 342 344 344 344 344 345 345 346 346 347 348 350 352 353 353 353 354 352 354 354 353 352
301 305 305 305 308 306 301 295 298 305 305 303 299 290 294 292 288 292 298 295 293 295 291 304 303 304 306 307 309 319 329 330 331 331 332 333 333 334 336 339 341 343 344 344 344 345 346 346 346 347 348 348 351 354 354 354 354 354 353 354 354 353 352
301 303 304 303 307 309 302 300 308 300 292 292 296 297 288 287 288 290 295 298 298 296 297 301 302 303 304 306 308 321 327 330 330 331 332 333 334 334 336 338 340 343 343 344 344 345 346 347 348 348 349 350 351 354 356 356 355 356 355 355 355 355 353
300 300 299 294 298 306 308 307 303 306 301 298 294 296 296 296 289 293 291 296 293 301 300 302 302 304 305 306 307 313 328 330 330 330 331 332 333 335 338 339 341 342 343 344 344 345 345 347 349 349 350 350 351 354 356 357 357 357 356 355 356 354 354
298 291 297 295 296 295 298 299 298 300 301 304 301 302 296 292 292 290 290 290 296 302 307 305 305 306 307 307 308 310 328 331 331 331 332 332 335 337 338 340 341 342 343 343 344 345 346 348 350 350 350 350 351 353 356 357 357 357 356 356 356 356 355
292 294 299 300 299 299 297 297 296 298 297 295 292 291 302 298 292 288 291 290 300 306 313 314 308 308 309 310 310 311 328 331 331 332 332 334 335 337 338 339 341 342 342 344 345 346 347 347 348 349 350 350 351 352 355 357 358 357 357 356 356 356 356
292 296 299 302 302 302 301 299 298 302 300 299 295 286 292 297 297 300 297 293 296 309 312 313 311 310 310 310 311 312 324 331 332 332 332 335 336 337 338 339 341 341 342 343 345 345 345 346 348 350 350 350 350 352 355 357 357 358 358 358 357 357 357
297 299 301 301 302 301 298 300 302 301 298 299 296 296 297 295 297 294 294 293 296 306 312 316 314 313 312 312 312 311 313 327 331 331 332 332 334 337 338 339 341 342 342 344 344 344 345 345 347 349 350 350 350 351 355 357 357 358 359 359 359 358 357
289 292 295 296 300 300 297 295 299 301 302 302 300 299 298 294 299 296 293 288 295 308 319 319 319 318 317 314 312 314 315 315 330 329 332 332 333 336 336 337 338 340 341 341 343 345 345 345 347 349 351 351 351 351 352 356 358 359 360 360 359 359 358
280 281 282 286 289 293 295 298 298 299 300 300 296 291 292 288 296 296 296 294 299 310 317 317 318 319 319 321 322 322 321 320 322 328 332 330 332 335 335 336 337 338 339 340 342 344 345 345 346 347 349 350 351 352 352 354 358 360 360 361 360 359 359
283 286 289 294 296 293 290 293 294 295 297 299 299 298 293 289 293 293 297 302 301 309 313 314 316 317 317 319 320 320 319 320 321 326 332 331 331 333 335 336 337 337 337 339 342 344 344 345 345 346 347 348 350 351 352 354 357 359 360 360 360 359 359
289 290 290 292 294 290 292 292 293 295 295 297 296 293 291 296 293 288 300 301 300 307 311 312 314 318 319 319 319 319 320 321 322 329 332 339 335 337 339 337 336 336 337 339 340 343 344 344 344 345 348 350 350 351 352 354 357 359 360 360 359 359 359
291 292 292 293 292 292 292 292 293 292 294 295 292 295 296 296 291 290 297 300 300 303 314 314 314 318 319 319 319 322 325 326 328 328 327 328 330 332 335 338 343 343 340 340 341 343 344 344 343 343 346 349 352 353 354 354 356 358 360 359 359 359 359
291 291 292 293 292 292 292 292 293 293 293 294 294 296 297 296 295 297 298 300 301 307 315 316 318 320 320 320 324 326 325 324 325 325 325 326 327 328 330 333 337 340 342 343 344 345 345 345 346 345 348 349 352 353 353 355 355 358 360 359 359 359 358
288 291 292 293 292 292 290 292 293 293 294 294 295 296 296 299 297 300 301 301 304 317 318 319 322 320 321 323 322 322 322 322 323 322 322 323 325 326 328 330 332 333 336 340 343 343 344 344 344 343 342 343 346 351 354 355 355 357 360 359 359 359 358
285 290 291 291 292 292 291 290 292 292 292 291 294 294 296 295 294 297 298 298 304 314 319 320 319 321 319 317 317 318 319 320 321 320 320 321 323 324 326 328 330 332 334 334 337 342 345 341 342 344 346 348 347 345 345 352 356 357 359 359 359 359 359
284 289 291 290 290 289 286 288 291 293 294 295 296 296 298 298 298 295 294 300 313 317 319 316 316 319 320 315 314 314 316 317 318 318 319 320 321 323 325 326 330 333 333 334 334 337 341 345 342 343 344 348 347 347 346 345 352 356 358 360 359 359 360
284 288 289 290 286 279 281 294 297 296 294 295 294 294 296 298 299 298 306 307 312 314 314 314 315 314 313 316 313 315 314 314 315 317 318 319 321 322 324 325 327 330 332 334 335 337 339 341 346 346 344 344 346 349 351 350 349 354 356 359 359 359 359
284 287 288 284 279 281 293 297 298 298 300 304 303 303 301 300 303 308 310 313 311 312 315 317 317 316 314 314 314 314 315 315 315 316 317 318 320 321 322 323 326 327 329 331 332 334 337 340 344 347 352 348 348 350 352 349 350 352 354 356 359 359 359
288 285 283 276 279 291 295 296 297 304 303 304 304 302 306 310 311 310 309 311 314 314 314 315 317 320 315 314 314 314 315 316 316 316 316 318 319 319 321 323 324 326 328 329 331 333 338 339 341 345 348 352 352 347 352 353 353 354 354 354 357 358 359
281 284 283 283 290 289 291 292 297 299 297 299 300 294 300 309 311 310 310 311 312 315 313 314 315 316 317 312 311 315 315 315 316 316 317 318 319 320 321 323 324 326 327 328 331 334 336 338 341 344 348 352 353 353 352 344 352 353 354 354 356 358 359
288 283 281 282 281 279 286 295 305 306 304 304 307 300 296 308 309 310 311 311 310 311 312 313 315 318 314 306 307 312 314 314 314 316 317 318 319 320 321 322 323 324 325 328 332 335 337 339 343 346 350 353 353 353 352 351 349 352 353 353 356 358 359
287 284 281 280 278 283 292 295 300 304 304 304 304 297 292 305 308 310 310 308 309 310 310 312 313 310 306 304 307 311 313 313 314 315 315 317 318 319 319 320 320 321 324 328 332 334 334 335 338 341 344 348 351 352 353 352 351 347 351 352 354 358 359
286 285 282 280 285 283 294 298 300 302 304 304 300 286 288 304 308 310 309 307 307 308 310 311 309 305 302 304 307 312 314 314 314 314 314 315 315 316 317 319 320 322 326 327 327 328 329 332 337 339 342 344 348 351 353 353 352 350 348 352 354 357 361
286 286 284 286 287 295 300 300 300 304 305 300 287 283 295 305 308 309 309 309 308 308 308 308 305 308 309 311 314 315 314 313 314 315 315 316 315 314 316 317 322 321 323 324 325 327 329 332 335 338 340 342 344 348 352 353 352 352 352 352 354 356 361
284 285 283 283 288 297 301 301 303 305 301 286 284 300 306 307 307 309 310 309 310 308 307 308 308 310 312 314 314 313 313 313 314 314 315 313 313 315 317 319 319 319 320 321 323 326 328 330 333 336 338 339 342 346 350 352 354 354 353 352 353 355 360
287 286 283 281 278 294 301 300 298 303 293 294 302 304 307 308 307 307 309 310 310 310 308 309 309 310 311 311 311 312 314 314 313 314 314 311 312 312 313 315 317 319 318 320 322 324 327 329 331 333 335 336 339 344 348 353 357 357 354 352 354 356 360
283 283 281 282 294 295 301 299 291 297 300 304 306 308 305 307 308 308 308 309 310 312 310 310 310 311 310 311 310 311 313 313 313 314 315 314 314 314 315 315 317 319 318 321 322 324 326 328 329 332 334 335 338 342 347 355 358 359 357 355 355 356 358
289 287 290 296 298 301 302 302 300 301 303 308 310 309 309 307 308 310 308 309 310 310 311 310 310 309 311 310 310 309 311 313 313 313 314 314 314 315 314 314 317 319 319 320 322 323 325 326 328 332 336 338 340 343 350 357 358 359 357 356 355 356 358
297 298 298 299 300 299 298 300 302 301 302 305 308 310 307 308 308 309 308 309 309 310 311 309 309 309 309 309 309 310 311 311 312 315 315 315 316 317 315 314 316 318 320 321 321 322 323 326 329 333 336 339 344 351 358 360 361 360 359 356 355 356 358
290 286 298 297 296 296 297 297 300 303 304 303 304 306 306 306 307 308 309 309 309 309 309 308 308 308 309 308 309 311 311 310 311 313 314 315 316 316 315 314 317 318 320 320 321 322 323 325 329 332 333 336 340 349 357 360 360 361 360 357 356 356 357
288 289 294 296 296 296 299 299 298 297 299 301 302 304 306 307 308 308 308 309 309 309 308 308 308 308 309 308 308 309 309 310 311 312 314 315 316 317 316 315 318 319 320 319 320 322 323 325 329 332 333 334 339 347 358 364 363 361 359 357 357 356 358
291 294 295 295 295 296 297 298 298 299 299 299 300 302 304 306 307 307 308 309 309 309 308 309 309 308 308 309 309 309 310 310 311 312 313 314 316 316 314 314 318 319 319 319 320 322 324 327 329 329 330 333 338 344 351 359 364 361 358 357 357 357 358
286 287 290 293 288 288 293 296 298 299 300 301 301 302 303 304 306 307 307 307 309 309 309 309 309 308 308 310 309 309 310 311 311 311 311 313 316 315 315 315 318 319 319 319 320 322 325 326 328 328 329 331 335 339 343 347 357 362 359 358 357 357 359
286 292 294 295 295 295 296 297 299 300 302 302 302 303 303 305 306 308 307 307 307 307 308 310 310 309 309 309 310 309 310 311 311 311 311 313 315 315 315 315 318 319 317 319 320 322 324 325 326 327 328 329 331 334 338 341 349 359 363 359 357 358 358
294 296 297 299 297 294 297 300 301 302 304 305 304 305 306 306 306 307 308 308 307 307 308 309 310 310 310 310 310 309 311 311 311 310 311 315 315 316 316 317 319 318 316 317 318 321 324 324 324 325 326 328 329 331 333 336 342 353 363 362 358 358 359
293 299 300 301 300 301 302 303 304 305 306 306 304 305 306 306 307 308 307 307 309 309 308 308 310 312 311 311 311 310 310 311 313 314 318 318 318 316 316 319 319 316 315 316 319 323 324 322 323 324 324 326 328 328 330 331 338 351 357 361 361 358 355
Wind_Speed
8 13 13 8 2 5 1 6 9 9 4 5 2 6 9 7 3 3 3 4 5 2 5 6 12 14 11 8 9 15 24 21 21 20 20 19 19 19 17 17 17 18 16 17 15 14 15 16 16 18 18 16 17 17 18 19 18 16 17 16 16 15 15
15 16 18 15 12 7 4 4 5 7 4 4 2 3 2 3 3 3 6 5 4 8 5 6 9 10 15 11 12 13 28 25 23 22 22 21 22 23 22 20 19 18 18 18 17 16 17 18 18 17 16 16 16 17 19 20 19 19 18 16 16 15 15
11 17 17 15 6 14 10 11 5 0 3 8 4 1 3 3 3 3 6 5 4 13 6 10 14 12 11 16 10 11 25 23 23 23 22 21 22 18 17 18 16 16 17 18 17 18 18 18 17 16 15 16 15 16 19 20 21 20 19 16 15 13 14
15 13 5 3 15 4 15 6 8 4 2 3 3 4 2 1 3 1 4 6 4 5 7 12 16 16 12 14 11 8 27 23 20 20 19 19 19 17 17 17 16 17 18 18 19 18 19 18 17 17 17 16 19 18 19 19 19 18 18 18 17 17 16
10 8 3 5 11 12 9 6 6 5 3 2 3 1 6 4 2 2 2 4 4 7 5 14 17 17 15 13 8 7 19 19 23 21 18 16 16 16 17 17 16 18 17 17 18 18 18 18 16 17 17 18 18 17 18 20 21 20 20 19 17 16 15
8 10 10 11 15 13 12 8 8 8 6 5 6 7 2 7 5 2 2 6 6 6 5 2 8 10 13 10 11 12 16 23 16 14 14 15 14 15 17 15 17 17 17 17 17 15 15 16 16 17 17 16 17 18 17 18 19 19 20 19 17 16 15
11 18 23 18 12 12 13 11 10 7 9 4 3 4 5 4 6 5 5 3 10 6 8 14 7 14 14 9 6 4 14 22 21 19 18 18 19 18 17 18 17 17 16 16 17 17 17 18 17 17 18 18 17 18 18 18 19 20 19 19 17 16 16
12 16 16 16 11 8 9 8 10 9 7 8 6 5 8 9 3 7 3 5 10 7 11 15 11 3 15 12 7 4 8 8 20 23 23 20 19 19 19 18 18 17 16 15 14 15 16 16 16 18 18 17 16 16 17 18 20 20 19 17 17 16 16
10 11 9 10 7 12 9 9 10 14 15 13 8 4 9 6 7 13 5 6 9 5 16 21 20 17 11 7 4 3 6 5 6 8 16 21 19 19 20 19 18 16 16 16 14 15 16 16 16 16 17 17 16 17 17 18 18 19 18 16 17 17 17
6 6 4 5 9 12 11 9 16 16 15 16 13 7 6 2 8 12 5 3 6 9 15 16 18 17 18 17 17 17 19 17 9 2 2 9 10 16 21 21 18 19 18 16 14 16 15 15 16 15 15 15 15 15 17 16 17 18 18 16 17 17 17
8 9 10 12 13 13 12 19 19 18 16 14 8 1 2 3 6 7 6 3 14 9 12 14 14 14 16 19 17 17 15 14 14 19 22 2 18 14 19 19 18 18 16 17 17 18 18 18 15 13 14 15 15 15 16 16 16 17 17 17 17 17 17
11 14 15 18 17 17 18 17 17 16 16 14 12 4 5 7 8 8 2 9 12 11 8 13 14 15 16 16 14 15 14 12 13 17 18 24 20 15 11 1 16 20 19 18 19 18 17 16 15 13 13 14 16 16 17 16 16 16 15 17 17 16 16
12 12 14 15 15 13 16 18 16 15 15 14 14 7 7 6 4 8 12 13 10 10 10 14 12 11 13 13 14 13 13 16 17 16 19 19 20 22 22 23 19 9 1 6 13 15 16 17 16 15 14 14 15 14 14 15 15 16 16 17 17 16 16
12 13 14 14 15 15 15 17 15 13 15 15 16 14 7 9 9 11 11 12 13 8 6 5 7 10 11 12 13 16 19 19 16 17 18 18 17 18 19 19 17 16 15 14 12 10 9 6 2 4 6 10 14 14 13 15 15 14 15 16 16 16 16
9 12 14 14 15 14 15 14 15 13 13 16 16 14 9 11 12 6 9 9 5 2 1 1 6 12 13 17 18 17 15 17 17 17 17 17 16 17 17 16 18 17 16 15 12 9 8 8 6 6 7 10 13 8 6 12 13 13 14 14 15 16 15
8 10 11 14 14 15 16 15 15 11 10 14 11 8 4 9 10 11 12 9 4 9 5 10 13 15 16 16 15 14 14 16 17 17 17 16 16 17 16 16 16 17 18 18 16 14 6 6 7 4 3 5 7 3 11 14 11 12 12 14 16 15 14
8 10 12 14 14 13 12 10 10 11 10 12 11 11 10 12 12 11 6 2 3 1 4 12 13 13 13 15 14 13 14 14 16 16 17 17 16 15 15 16 15 15 15 15 16 14 13 7 5 7 8 1 7 9 9 11 15 11 12 14 15 15 15
7 11 12 11 8 8 8 8 13 10 12 11 14 15 11 10 12 4 5 7 7 9 8 10 11 13 13 10 11 12 12 12 14 15 16 16 16 16 14 14 13 9 7 8 9 12 10 10 6 4 11 8 6 7 8 7 15 16 12 13 15 15 15
5 7 8 7 8 8 6 12 10 11 11 12 12 15 11 11 5 8 7 5 8 7 9 7 8 10 12 15 16 15 14 14 13 14 15 15 16 16 16 16 15 14 11 8 11 13 14 14 11 8 3 9 8 10 11 13 19 17 12 11 13 14 15
3 5 3 5 7 5 11 13 13 9 7 9 14 10 10 14 12 9 9 11 4 9 9 9 4 5 11 12 12 13 14 14 14 14 14 16 16 16 15 14 14 14 16 15 14 12 12 14 13 12 11 11 8 4 8 14 17 14 11 11 12 15 15
3 2 5 9 10 13 11 10 5 4 6 7 5 3 7 9 10 14 9 8 5 5 10 9 9 7 4 11 9 14 15 15 14 13 13 15 14 14 14 15 15 13 13 15 14 13 12 10 11 13 12 12 11 9 5 7 9 10 10 11 11 14 16
4 3 4 4 7 9 6 6 4 4 7 5 3 3 3 8 13 14 10 7 10 9 10 10 12 8 4 9 9 13 16 15 14 13 13 13 14 14 15 15 14 16 15 14 14 14 14 13 12 11 12 12 13 12 9 9 8 8 10 11 10 12 15
0 2 4 4 5 7 2 7 11 13 9 11 11 5 4 3 10 13 12 12 10 10 10 9 9 6 4 5 7 10 13 13 13 12 12 13 13 14 14 15 16 16 15 14 15 14 15 16 16 16 16 16 15 13 11 10 9 9 10 11 12 12 13
2 2 2 4 3 3 10 14 13 16 13 8 6 6 3 8 13 12 12 11 12 11 11 9 10 9 5 6 6 8 9 9 10 10 12 12 14 14 14 13 13 14 13 15 15 15 15 15 16 17 16 15 16 14 13 11 11 10 10 11 12 10 10
4 4 4 5 6 3 4 9 13 12 14 4 3 4 5 10 12 11 9 10 8 8 9 9 6 5 3 3 3 6 9 9 9 9 9 10 11 13 14 14 14 12 13 12 13 14 12 13 15 15 15 15 15 15 15 13 13 13 12 9 10 10 11
5 4 7 8 4 2 4 8 8 6 6 3 2 3 4 8 11 12 12 10 7 6 6 5 5 6 5 7 8 9 11 10 7 7 9 11 12 11 10 13 13 14 13 13 14 13 13 15 15 14 14 15 15 14 14 15 15 14 13 9 8 10 12
4 4 6 5 6 0 9 10 5 5 4 4 4 6 7 4 6 9 10 10 6 6 5 5 5 6 7 5 6 4 6 8 8 8 8 10 12 14 16 16 15 15 14 14 14 15 14 14 14 14 15 16 16 15 15 18 16 14 12 9 9 11 12
1 1 4 2 1 5 10 8 3 5 5 4 4 2 6 5 3 4 5 6 5 3 3 5 7 9 8 3 5 4 4 5 6 6 6 6 9 12 12 13 16 17 14 14 15 15 14 14 14 14 13 15 16 16 19 18 16 15 13 11 9 12 13
1 3 4 6 8 7 5 8 9 8 9 5 2 3 5 8 7 3 4 6 4 4 2 2 4 6 9 7 2 3 3 4 5 8 7 7 8 9 11 14 14 14 15 16 17 18 16 17 16 14 13 14 18 19 19 16 16 15 14 12 10 13 14
4 9 12 12 8 8 11 10 8 11 11 8 6 4 6 7 9 8 7 6 5 4 2 3 2 4 5 8 8 3 4 3 4 5 7 7 6 7 10 12 15 15 15 16 17 20 20 19 17 14 15 16 19 19 17 15 15 15 13 12 12 14 14
5 4 4 10 12 12 13 13 12 8 9 12 11 7 6 8 10 12 12 10 7 7 5 4 5 5 3 4 6 3 3 4 4 4 6 8 8 8 9 10 12 12 12 15 18 20 21 19 17 17 17 17 18 19 18 17 17 15 12 12 12 13 15
4 6 11 10 12 13 9 7 9 12 14 15 14 14 12 8 9 10 11 13 12 8 7 5 5 6 4 4 1 4 3 3 4 4 5 8 10 9 8 10 11 10 11 14 16 18 18 18 16 17 17 18 19 21 19 17 17 13 11 11 13 14 16
7 10 6 12 18 11 5 9 12 12 13 14 17 17 17 14 10 10 11 11 12 10 7 6 8 8 7 5 3 4 5 3 3 4 5 7 6 7 11 13 13 12 12 14 15 17 17 15 17 18 19 19 19 20 20 19 18 12 11 11 13 14 14
4 3 7 11 9 10 13 16 14 16 16 17 17 16 17 15 10 9 10 12 12 12 9 6 6 8 7 6 5 6 7 5 2 3 6 7 5 6 8 9 11 13 14 14 15 14 14 17 18 17 18 18 18 18 18 19 18 14 11 11 13 13 13
5 7 10 9 10 13 12 13 16 16 15 15 16 15 15 15 11 9 10 11 12 12 10 7 6 5 6 7 5 6 6 6 4 3 5 6 4 8 9 11 12 13 15 15 17 16 16 16 17 17 17 17 18 19 20 19 18 17 10 11 11 12 13
10 10 8 9 9 11 13 15 16 16 12 12 14 14 13 13 11 9 10 10 10 9 9 9 6 6 6 7 5 5 5 6 5 5 5 2 2 4 7 9 10 13 16 17 17 17 15 16 17 17 18 17 18 19 20 20 19 17 14 10 11 12 13
6 5 7 8 8 10 11 11 13 12 10 12 11 12 14 13 12 11 12 11 9 10 9 9 7 5 4 4 3 4 4 6 7 5 4 3 4 4 6 8 9 11 13 13 13 13 14 17 17 17 16 17 17 19 19 19 19 16 13 11 11 6 3
Wind_Direction
318 339 330 237 227 253 207 193 209 214 250 249 288 298 282 299 302 253 221 224 232 206 249 228 232 262 258 243 245 157 177 173 169 174 175 174 176 173 175 176 177 176 177 180 176 172 173 177 178 180 180 175 173 172 173 178 180 182 187 189 189 189 188
322 329 339 319 194 217 262 276 216 188 230 292 205 227 301 240 197 251 238 220 205 175 245 226 241 226 250 252 244 162 174 169 176 178 177 175 177 179 177 176 173 174 176 178 177 178 179 181 184 180 176 174 172 172 174 176 180 184 188 188 190 192 191
327 341 331 342 324 189 229 224 332 295 136 228 257 0 248 290 275 279 264 275 245 183 213 187 221 224 225 241 237 147 170 172 174 179 178 178 176 170 172 173 170 172 178 180 179 182 182 183 184 182 172 173 172 174 177 178 182 184 184 187 190 192 194
342 321 325 343 355 267 221 280 268 233 272 254 208 204 298 346 290 343 281 266 260 184 208 188 203 208 209 232 226 154 171 167 179 179 178 175 173 174 170 171 172 176 178 180 182 181 182 183 182 184 178 176 176 176 176 180 182 182 184 187 187 191 194
341 300 336 13 14 341 331 290 272 299 282 18 315 171 222 196 214 219 276 311 287 262 214 195 197 198 201 208 197 195 168 175 175 174 171 168 168 164 171 171 175 177 177 180 182 181 182 183 182 181 182 180 178 176 177 179 180 182 186 188 188 193 192
322 294 292 337 334 331 312 316 309 298 249 239 221 266 202 230 219 217 250 254 264 278 347 3 224 192 186 190 181 206 154 171 170 167 158 168 164 169 173 174 178 180 178 178 181 179 179 183 181 182 184 182 179 181 178 178 180 184 186 188 190 189 193
304 298 300 302 311 302 300 303 299 346 311 259 255 267 279 247 214 210 254 317 278 269 324 341 304 172 181 176 158 154 159 160 164 167 170 166 171 174 178 181 178 179 180 181 179 177 180 183 183 183 184 187 185 181 176 181 183 185 186 187 188 189 192
297 292 290 299 311 301 299 321 334 340 317 324 335 336 347 321 236 185 205 228 260 304 344 330 330 202 172 171 170 161 115 171 165 168 177 172 174 177 178 176 175 176 181 179 176 178 180 184 185 185 187 186 187 184 180 181 185 183 184 186 187 189 192
318 312 322 302 37 18 10 321 324 336 344 353 4 45 15 360 2 352 171 215 260 19 23 19 7 12 41 49 117 51 5 105 138 200 182 176 170 176 178 177 173 174 175 175 176 179 183 185 186 185 184 185 188 188 184 182 183 182 184 185 188 190 192
302 296 348 9 351 342 323 307 324 328 349 353 29 357 336 348 340 347 343 300 298 2 30 23 14 9 36 49 47 49 50 29 31 96 245 203 185 173 176 177 176 174 174 175 176 180 184 186 188 187 185 185 188 188 189 183 178 180 183 185 189 190 192
264 282 297 298 317 316 310 316 320 321 332 331 325 264 354 324 299 312 278 306 332 351 21 31 13 8 31 39 30 49 37 23 18 26 20 83 176 180 182 176 177 175 170 176 181 180 181 185 185 181 183 186 190 192 189 186 181 179 181 185 188 189 190
264 279 277 283 292 295 300 303 307 316 316 323 317 317 317 322 338 303 302 349 341 326 358 30 21 18 26 31 26 29 33 25 27 38 41 41 40 28 21 180 175 172 177 181 182 181 180 181 180 179 185 188 192 193 190 186 182 180 182 185 188 189 187
285 283 289 298 297 288 288 290 295 303 316 314 311 313 319 332 292 289 320 321 318 302 337 352 10 15 35 24 21 20 30 35 36 40 41 37 35 28 31 39 36 26 20 190 184 182 182 181 182 184 187 192 195 194 191 188 184 183 180 181 186 188 188
298 298 301 299 297 296 286 280 285 299 300 296 292 294 301 299 282 282 294 292 294 308 114 298 323 5 18 25 25 25 34 34 32 31 37 34 32 34 36 36 39 41 37 33 31 31 23 14 339 195 191 198 196 191 191 187 188 183 177 183 184 187 189
286 302 307 306 294 293 289 290 287 286 290 284 285 291 297 287 279 290 301 315 308 37 280 155 42 12 21 33 31 27 24 29 33 31 30 27 27 30 32 30 33 30 20 20 27 36 35 37 42 61 97 47 10 325 228 192 191 184 178 181 185 187 189
301 292 293 290 293 289 290 287 279 269 271 279 275 276 334 306 304 325 336 333 350 343 342 60 53 42 28 32 31 27 18 22 30 29 22 22 22 23 22 28 29 24 13 8 7 10 30 96 55 12 11 83 96 82 328 296 211 185 181 181 185 187 184
284 286 288 298 304 310 299 296 284 276 251 252 281 284 272 270 286 283 295 298 298 83 343 50 52 59 38 35 29 21 19 20 26 26 21 14 16 18 17 22 22 17 7 356 352 354 351 20 64 346 320 187 161 173 189 258 283 216 187 184 185 185 182
284 294 299 304 306 278 265 272 302 330 325 323 304 284 260 256 255 305 14 26 325 3 13 52 57 58 59 46 34 31 25 19 20 21 16 13 9 7 12 16 16 11 14 357 341 331 332 353 358 230 218 222 196 186 177 203 259 243 200 185 185 186 182
283 295 289 284 260 263 285 280 296 337 337 353 344 339 314 266 327 13 51 81 350 352 347 29 73 85 75 61 33 26 29 27 26 18 12 10 5 1 359 1 2 354 354 357 354 351 348 342 337 340 275 217 204 207 188 199 231 240 205 188 184 186 186
339 305 270 269 252 267 303 303 318 332 346 23 19 345 32 27 2 342 52 58 23 348 1 360 16 110 95 64 54 26 26 33 28 18 12 3 1 357 355 352 350 352 351 352 349 340 333 333 331 327 321 320 307 213 184 211 216 218 205 192 186 185 187
221 231 274 278 303 300 292 303 322 344 339 8 23 327 325 19 10 6 26 53 48 15 7 350 339 329 100 52 32 21 23 27 33 23 14 360 355 352 349 351 346 353 347 341 335 330 329 326 319 312 316 314 309 313 296 248 219 214 199 199 189 189 189
168 251 279 307 297 270 279 272 293 302 334 319 309 301 278 33 3 16 21 25 32 27 12 5 342 329 35 33 9 11 14 19 24 23 14 1 354 352 348 347 349 346 340 334 334 332 329 328 324 320 321 317 312 302 291 290 275 231 209 206 199 189 192
68 263 254 255 257 260 297 316 340 347 357 358 333 309 282 11 0 10 22 28 25 19 10 20 9 30 51 32 13 10 9 12 19 15 8 359 354 349 349 347 346 339 336 334 335 336 335 331 329 326 322 317 308 299 288 279 276 259 226 214 206 196 195
219 240 245 265 264 301 15 343 350 335 334 336 339 326 291 351 346 353 13 21 21 14 14 16 40 47 38 358 355 352 17 17 15 12 3 356 352 348 345 346 341 334 332 334 337 337 332 326 325 320 320 316 310 302 294 281 271 262 246 227 212 200 184
228 239 262 268 267 310 351 331 342 350 333 353 336 261 331 332 325 341 355 6 25 12 21 12 26 16 358 354 323 337 29 11 14 10 9 356 346 343 345 343 339 339 337 333 330 327 324 324 322 319 317 313 304 303 301 294 277 267 255 241 220 193 182
231 208 233 236 255 113 303 342 343 349 336 327 294 316 312 305 318 332 331 345 22 23 18 7 354 331 346 12 3 25 18 359 3 10 360 350 348 348 341 339 345 342 335 330 325 325 326 323 321 317 313 304 297 294 293 287 280 268 263 239 212 200 184
215 216 241 245 249 279 326 340 336 37 20 232 229 289 290 301 302 322 330 326 355 21 346 347 343 324 335 12 352 7 38 353 357 360 359 357 349 346 343 342 344 342 336 332 329 325 325 323 319 311 308 299 293 290 284 279 278 276 264 246 209 202 193
262 243 240 229 172 310 335 341 320 320 311 254 257 241 297 296 298 299 305 304 317 11 19 341 332 333 312 354 348 336 27 357 350 350 352 351 348 344 341 336 337 340 337 331 327 326 324 323 318 310 300 294 289 285 280 277 277 276 269 246 215 203 196
290 270 287 300 305 312 322 344 329 323 334 331 280 301 284 296 296 263 266 293 318 329 355 342 315 319 317 320 311 332 1 2 2 349 341 345 341 336 338 338 333 334 336 330 327 326 328 323 318 310 302 291 287 281 276 275 271 268 260 242 214 204 199
300 286 261 265 290 358 351 333 326 319 312 335 343 320 304 300 299 296 287 290 292 281 271 283 266 271 303 320 327 343 335 358 356 341 330 330 330 332 339 341 341 337 335 333 331 328 327 327 320 319 316 310 297 287 285 282 274 265 250 232 213 205 200
337 284 29 345 351 347 334 323 313 324 354 347 329 316 311 307 306 305 304 302 302 299 285 240 244 244 266 297 310 312 323 333 342 342 333 324 329 337 338 334 331 332 339 337 331 327 325 324 322 321 318 310 305 299 291 285 277 261 238 220 210 205 199
268 282 308 322 344 324 311 332 348 335 329 323 320 316 305 295 294 289 290 296 290 288 293 311 310 311 301 266 256 312 309 308 322 335 334 328 325 328 329 332 334 325 336 339 330 325 322 320 321 320 318 313 308 304 298 294 282 251 221 213 210 205 198
283 277 287 357 329 311 301 331 322 318 314 311 307 305 303 297 293 296 296 289 287 285 288 305 306 307 308 309 334 322 311 304 319 331 333 325 317 322 333 336 337 333 336 339 332 323 318 322 327 324 320 316 310 312 315 313 303 253 220 212 211 206 199
297 324 330 339 328 317 318 317 319 314 307 303 298 294 290 285 276 280 283 286 285 290 285 268 267 279 295 309 330 323 311 300 313 333 329 318 321 332 328 327 329 330 334 337 337 324 322 330 328 322 318 316 315 316 316 314 312 288 232 209 209 206 199
291 308 304 298 286 288 290 301 305 302 301 296 290 281 279 281 275 273 274 276 276 276 284 284 278 279 289 296 314 311 305 304 312 323 320 317 341 335 328 332 332 334 332 335 339 332 333 332 323 317 317 321 322 322 319 314 313 309 264 216 208 206 199
252 262 281 292 287 291 300 302 300 299 301 310 312 306 287 274 275 280 280 277 283 287 287 290 285 279 280 279 272 284 303 313 315 318 307 303 340 318 326 328 331 334 332 338 340 331 328 324 322 325 327 325 325 321 320 315 312 305 296 248 220 210 203
244 257 283 289 285 285 288 291 298 301 308 321 323 318 312 292 274 267 269 274 266 267 274 275 282 279 282 299 303 295 293 305 299 287 315 337 320 321 322 327 336 338 330 326 328 324 321 322 325 327 325 324 325 323 319 313 308 304 304 292 254 243 355